Regional Weather Roundup
Issued by NWS Newport/Morehead, NC

Current Version | Previous Version | Graphics & Text | Print | Product List | Glossary On
Versions: 1 2 3 4 5 6 7 8 9 10 11 12 13 14 15 16 17 18 19 20 21 22 23 24 25 26 27 28 29 30 31 32 33 34 35 36 37 38 39 40 41 42 43 44 45 46 47 48 49 50
000 ASUS42 KMHX 290425 RWRMHX WEATHER ROUNDUP FOR EASTERN NORTH CAROLINA NATIONAL WEATHER SERVICE NEWPORT/MOREHEAD CITY NC 1200 AM EDT FRI JUL 29 2016 NOTE: "FAIR" INDICATES FEW OR NO CLOUDS BELOW 12,000 FEET WITH NO SIGNIFICANT WEATHER AND/OR OBSTRUCTIONS TO VISIBILITY NCZ015>017-031-032-045>047-102-103-290500- NORTH COAST CITY SKY/WX TMP DP RH WIND PRES REMARKS EDENTON CLEAR 86 73 65 SW12G17 29.85R ELIZABETH CITY CLEAR 85 75 72 SW14 29.83R KITTY HAWK PTCLDY 84 76 75 SW9 29.84R MANTEO N/A 84 80 87 SW12 29.86R $$ NCZ045>047-081-094-103-104-290500- CENTRAL COAST CITY SKY/WX TMP DP RH WIND PRES REMARKS FRISCO CLEAR 82 78 88 SW14G23 29.88F $$ NCZ095-097-098-100-101-290500- SOUTHERN COAST CITY SKY/WX TMP DP RH WIND PRES REMARKS BEAUFORT CLEAR 83 78 85 SW14G22 29.90F CEDAR ISLAND NOT AVBL JACKSONVILLE CLEAR 82 74 76 SW8 29.89F PINEY ISLAND NOT AVBL WILMINGTON CLEAR 83 76 79 SW10 29.92S $$ NCZ011>013-027>030-043-044-078>080-089-090>093-098-290500- COASTAL PLAIN CITY SKY/WX TMP DP RH WIND PRES REMARKS AHOSKIE CLEAR 81 73 76 CALM 29.84R CLINTON CLEAR 83 77 83 SW5 29.89F ELIZABETHTOWN CLEAR 84 77 79 S8 29.91S GOLDSBORO CLEAR 85 77 79 S10 29.86R GREENVILLE CLEAR 84 73 70 SW9G16 29.88S HAVELOCK CLEAR 82 75 79 SW7 29.90S KENANSVILLE NOT AVBL KINSTON CLEAR 83 74 73 S9 29.88F NEW BERN CLEAR 81 74 79 SW8 29.89F RICHLANDS CLEAR 81 76 84 S8 29.90F ROCKY MOUNT CLEAR 85 72 65 SW12 29.85S WASHINGTON CLEAR 83 74 73 SW10 29.86S WHITEVILLE CLEAR 82 76 81 S7 29.92S $$ AMZ130-135-150-152-154-156-158-170-250-252-270-ANZ085-086-088-633-658-670-290500- MARINE OBSERVATIONS STATION/POSITION TIME TEMP WIND PRES WAVE SWELL AIR SEA DIR/SP/G HT/PER HT/PER (UTC) (F) (DEG/KT/KT) (MB) (FT/S) (FT/S) CHESAPEAKE LIGHT NOT AVBL 64 E VA BEACH 0350 84 81 210/ 12/ 14 1010.4 3/ 4 2/ 8 DUCK 0400 87 72 230/ 17/ 19 1010.0 2 E DUCK 0311 77 N/A 1/ 7 OREGON INLET 0400 86 80 220/ 16/ 20 1010.8 13E OREGON INLT 0400 81 N/A 3/ 4 2/ 8 HATTERAS CG 0400 82 84 220/ 11/ 15 1011.3 DIAMOND BUOY 0350 85 85 230/ 19/ 23 1011.6 4/ 4 2/ 8 CAPE LOOKOUT 0400 84 230/ 11/ 16 1012.2 BEAUFORT LAB 0400 84 84 230/ 5/ 14 1011.8 30 SE NEW RVR IN 0408 85 85 230/ 17/ 21 1012.9 30 SE NEW RVR IN 0325 85 N/A 5/ 6 27 SE WRIGHTSVLE 0408 85 84 230/ 17/ 23 1013.4 5 SE WRIGHTSVLE 0308 83 80 240/ 14/ 17 1013.9 225 S CAPE HAT 0350 84 84 250/ 10/ 12 1015.9 4/ 6 3/ 6 41 SE CHARLESTON 0350 86 86 210/ 17/ 21 1014.2 4/ 5 2/ 7 $$

USA.gov is the U.S. government's official web portal to all federal, state and local government web resources and services.